Terminal Aerodrome Forecast
Issued by NWS Greer, SC

Home | Current Version | Previous Version | Text Only | Print | Product List | Glossary On
Versions: 1 2 3 4 5 6 7 8 9 10 11 12 13 14 15 16 17 18 19 20 21 22 23 24 25 26 27 28 29 30 31 32 33 34 35 36 37 38 39 40 41 42 43 44 45 46 47 48 49 50
000
FTUS42 KGSP 190400 AAB
TAFCLT
TAF AMD
KCLT 190407Z 1904/1924 02006KT P6SM SCT045 BKN070
      TEMPO 1904/1906 VRB10G17KT TS BKN035CB
     FM190700 08003KT 5SM BR BKN019
     FM191000 09003KT 5SM BR OVC008
     FM191400 09005KT P6SM BKN028
     FM191800 09007KT P6SM BKN035=

USA.gov is the U.S. government's official web portal to all federal, state and local government web resources and services.